Location: Recife
(8.0585°S, 34.8848°W)
Time: 19:19:43
(UTC-03:00)

N. Korean satellite - Pass Details

Date: 03 October 2021
Orbit: 450 x 495 km, 97.3° (Epoch: 21 October)

Event Time Altitude Azimuth Distance (km) Brightness Sun altitude
Rises 03:17:36 0° 46° (NE) 2,566 10.7 -26.7°
Reaches altitude 10° 03:20:39 10° 75° (ENE) 1,691 10.2 -26.0°
Maximum altitude 03:22:21 13° 103° (ESE) 1,521 10.0 -25.6°
Drops below altitude 10° 03:24:02 10° 131° (SE) 1,695 10.0 -25.2°
Sets 03:27:05 0° 160° (SSE) 2,579 10.6 -24.4°
